フィエチジョシュ彗星

C/2024 E1 ( Wierzchos )

English version
Home page
Updated on September 4, 2024

---------------------------------------------------------------------

・ プロフィール

発見日 2024年3月3日
発見光度 20.4等
発見者 Kacper W. Wierzchos (Mt. Lemmon Survey)

・ 写真集

・ 軌道要素

Epoch 2024 Oct. 17.0 TT = JDT 2460600.5
T 2026 Jan. 20.77914 TT                                 Rudenko
q   0.5655206            (2000.0)            P               Q
z  -0.0000172      Peri.  243.65145     +0.35492497     -0.17082405
 +/-0.0000113      Node   108.09563     +0.02269525     +0.98444957
e   1.0000097      Incl.   75.23592     -0.93461928     -0.04096576
>From 277 observations 2024 Feb. 15-Aug. 11, mean residual 0".4.

・ 星図

・ 光度変化

        m1 = 7.0 + 5 logΔ + 10.0 log r

---------------------------------------------------------------------

軌道要素はM.P.E.C. 2024-Q20に掲載されたものです。
星図はステラナビゲータ Ver.11 (アストロアーツ) で作成したものです。
光度グラフはComet for Windowsで作成したものです。

---------------------------------------------------------------------

Copyright(C) Seiichi Yoshida (comet@aerith.net). All rights reserved.